Terminal Aerodrome Forecast
Issued by NWS Charleston, WV

Current Version | Previous Version | Graphics & Text | Print | Product List | Glossary On
Versions: 1 2 3 4 5 6 7 8 9 10 11 12 13 14 15 16 17 18 19 20 21 22 23 24
278
FTUS41 KRLX 030842 AAA
TAFCRW
TAF AMD
KCRW 030842Z 0309/0406 16015G20KT P6SM BKN100
     FM031000 17014G20KT 4SM SHRA BKN025
      TEMPO 0310/0311 25015G25KT 2SM SHRA BKN015
     FM031200 19010G18KT 6SM SHRA BKN015
     FM031500 21010G18KT P6SM BKN025
     FM031900 21009G15KT P6SM BKN040
     FM032300 23008KT P6SM FEW040=

USA.gov is the U.S. government's official web portal to all federal, state and local government web resources and services.